Tracking 27419 objects as of 10-Jun-2023
HD Live streaming from Space Station
objects crossing your sky now

COSMOS 1275 DEB

Track COSMOS 1275 DEB now!
10-day predictions


NORAD ID: 42189
Int'l Code: 1981-053TD
Perigee: 919.2 km
Apogee: 1,102.0 km
Inclination: 83.0 °
Period: 105.2 minutes
Semi major axis: 7381 km
RCS: Unknown
Launch date: June 4, 1981
Source: Commonwealth of Independent States (former USSR) (CIS)
Launch site: PLESETSK MISSILE AND SPACE COMPLEX (PKMTR)

Note: This is SATELLITE DEBRIS
Your satellite tracking list
Your tracking list is empty




NASA's NSSDC Master Catalog

Two Line Element Set (TLE):
1 42189U 81053TD  23157.88327269  .00001056  00000-0  11453-2 0  9992
2 42189  83.0214  17.4531 0123819 233.9250 125.0385 13.68914172457432
Source of the keplerian elements: AFSPC